GFSNIL_prec_cthk_060.txt.gz
RH
52 55 61 72 81 82 78 74 73 74 79 81 82 86 87 87 86 79 73 73 72 66
49 49 51 57 59 64 66 63 65 65 70 74 75 77 77 77 72 76 79 81 74 74
46 48 50 51 51 53 56 56 55 59 64 68 69 69 71 70 74 78 77 75 75 73
49 53 57 58 55 56 59 58 55 56 60 61 62 64 66 63 66 68 71 78 82 82
47 50 52 58 58 61 60 63 65 69 71 69 68 68 71 72 75 78 78 76 70 68
44 44 42 48 54 57 63 64 69 68 68 70 72 73 73 75 80 82 81 81 82 87
45 45 48 49 48 49 54 55 57 62 63 64 77 73 74 74 73 74 79 79 78 90
46 50 51 50 50 50 49 52 52 52 49 51 57 68 76 85 80 78 79 81 78 79
50 49 48 51 50 47 46 48 52 53 57 53 52 52 61 68 73 84 81 83 87 93
46 47 48 48 52 51 51 51 47 47 50 52 56 61 67 74 82 90 91 95 94 93
47 49 54 56 57 59 60 60 60 57 55 55 59 65 69 75 84 90 94 92 94 94
52 52 53 50 48 53 57 62 63 68 64 58 54 61 70 77 81 84 87 90 90 89
54 57 58 60 62 61 63 71 69 70 72 68 60 59 59 65 72 80 86 87 86 89
58 61 64 65 68 69 71 71 75 77 79 76 66 58 58 62 68 69 73 78 80 86

GFSNIL_prec_cthk_066.txt.gz
RH
50 54 56 61 68 77 83 88 90 90 89 86 86 85 90 92 89 94 92 94 91 90
44 47 51 55 61 69 80 89 91 90 89 84 83 82 83 84 86 86 91 96 90 82
47 47 47 52 54 57 65 74 77 75 74 74 76 79 75 74 77 78 77 84 82 78
44 49 49 52 54 58 61 62 61 62 63 64 63 64 60 62 69 68 67 70 72 74
41 42 45 54 52 54 57 62 63 59 61 63 64 66 64 61 58 63 63 64 67 65
40 42 44 44 45 48 50 54 59 66 65 63 67 66 66 70 72 74 76 75 79 79
45 44 44 46 45 46 49 51 51 51 58 59 60 60 58 62 68 63 59 60 61 75
50 50 47 46 47 48 48 50 50 50 51 51 52 53 54 53 53 53 54 55 54 55
56 54 50 49 51 53 54 55 55 53 55 53 51 52 53 56 58 60 61 58 59 59
58 57 54 54 55 52 54 58 55 54 56 54 56 53 54 59 63 65 66 66 66 67
62 61 61 60 59 59 62 62 60 59 60 63 62 62 64 64 67 68 69 73 76 76
61 62 64 65 65 65 67 68 68 66 66 64 64 64 62 67 71 75 74 77 77 79
65 68 65 67 67 68 69 75 73 67 65 63 64 67 70 72 75 77 85 86 84 85
66 70 69 68 70 72 73 71 74 75 75 73 74 75 75 77 79 83 88 90 89 88

GFSNIL_prec_cthk_072.txt.gz
RH
46 43 45 48 52 58 71 85 91 92 94 96 97 95 94 92 91 87 83 81 81 80
44 46 45 45 47 52 60 72 84 89 88 90 93 93 89 85 80 79 77 79 83 88
42 44 45 48 50 52 57 62 74 86 91 90 88 88 88 85 85 83 81 86 90 89
41 46 49 49 51 55 59 61 62 71 79 78 76 77 76 77 78 76 76 77 82 85
39 43 45 50 52 55 54 59 61 65 67 67 65 64 64 64 65 65 67 70 73 74
41 43 47 46 49 50 52 52 52 55 58 61 65 66 68 69 70 73 73 73 69 65
56 53 51 48 50 52 53 53 54 55 56 58 61 61 62 68 71 73 73 73 74 75
66 67 67 66 64 60 57 57 56 54 55 56 58 59 62 64 64 63 62 66 63 61
69 69 70 70 70 68 67 67 65 61 56 55 56 58 63 66 68 69 68 64 63 64
77 76 74 74 74 73 74 74 72 69 67 65 62 60 62 66 68 67 66 66 66 67
71 73 76 77 78 78 77 76 76 76 77 77 73 74 74 76 75 73 72 73 72 71
69 68 69 72 73 75 78 79 77 82 84 85 85 83 81 81 83 85 83 86 86 84
59 65 69 68 65 66 69 76 80 82 85 88 89 86 88 88 89 90 91 88 93 91
42 44 47 51 57 62 63 65 68 73 77 81 88 90 88 89 91 94 96 97 95 94

GFSNIL_prec_cthk_075.txt.gz
RH
40 45 47 48 52 60 77 88 89 99 97 97 98 96 96 96 97 97 95 96 95 95
38 41 44 45 48 53 59 68 81 90 93 95 97 96 97 97 96 93 95 94 94 94
40 41 43 43 45 48 53 57 65 78 86 88 96 96 96 95 94 94 94 93 93 92
42 45 46 45 47 49 53 59 62 69 83 91 93 94 94 95 95 94 94 93 91 85
41 44 47 51 53 53 53 56 60 66 68 71 74 75 76 81 80 80 81 81 79 76
48 45 47 49 50 52 54 56 57 57 61 66 67 69 69 66 66 65 65 67 64 66
59 57 56 56 56 56 56 56 55 56 59 61 64 65 68 67 66 67 71 72 73 74
72 71 68 66 66 66 66 65 66 65 61 59 60 60 64 67 68 69 68 68 66 67
79 78 78 75 74 74 73 73 72 72 73 71 67 65 63 66 69 72 72 71 71 70
80 79 81 80 77 79 79 80 78 77 79 78 79 78 80 79 74 72 71 69 68 70
74 76 78 77 77 79 81 84 85 84 85 85 87 83 82 81 85 87 85 83 81 79
60 64 66 66 69 72 73 77 80 82 82 85 87 85 84 85 87 89 91 93 94 89
51 53 53 56 59 63 64 66 69 72 74 76 79 81 84 88 92 96 97 97 96 95
43 46 46 45 45 45 46 46 51 57 60 62 66 69 72 76 84 93 96 97 96 91

GFSNIL_prec_cthk_081.txt.gz
RH
41 46 51 54 57 60 65 75 79 82 86 87 91 89 86 84 77 79 81 84 85 89
40 45 49 49 53 51 53 59 77 85 91 90 91 90 89 89 87 87 86 84 86 88
40 41 45 47 49 48 52 54 58 67 81 92 97 95 93 91 93 89 89 87 87 93
37 41 43 44 47 49 51 53 58 64 68 73 80 88 91 91 91 91 92 95 94 93
39 41 43 44 47 51 53 54 56 59 62 70 74 80 83 89 94 96 96 94 93 94
48 45 46 47 48 51 53 55 56 56 58 59 63 70 78 82 84 85 82 82 84 87
55 52 50 51 51 50 52 54 56 58 60 61 63 64 65 66 69 66 66 70 69 72
66 64 61 62 61 61 61 60 59 60 61 64 67 66 64 65 64 65 65 65 66 67
76 76 76 77 78 77 75 73 70 70 70 75 74 72 70 69 71 72 71 71 71 72
88 83 81 82 82 83 85 85 84 82 82 83 80 78 79 82 86 87 88 88 87 86
88 88 85 83 84 84 84 84 85 84 82 81 82 82 86 90 91 92 91 88 83 85
85 84 83 82 82 82 82 80 77 81 82 82 81 82 80 79 82 85 88 89 88 88
72 69 66 61 57 56 57 62 65 67 68 71 72 75 76 75 73 74 76 80 81 82
60 57 55 53 51 47 45 46 48 47 48 47 46 44 44 44 45 47 48 48 50 52

GFSNIL_prec_cthk_084.txt.gz
RH
35 37 42 49 53 58 62 69 76 82 91 98 99 98 99 91 87 85 79 71 71 73
36 39 43 49 53 54 55 59 77 81 85 89 96 95 93 92 87 85 83 84 83 87
37 41 44 49 51 51 51 53 57 68 76 89 92 91 94 92 91 91 89 85 84 85
37 40 44 47 48 48 48 52 56 62 72 75 85 90 92 94 95 93 89 86 87 89
40 42 43 47 50 50 51 52 54 56 63 69 75 78 80 84 88 87 86 85 87 88
40 45 45 48 50 50 51 53 54 55 56 59 62 68 75 79 81 83 82 82 81 81
47 48 53 52 54 55 54 54 57 58 60 61 62 62 62 63 64 65 66 68 69 70
52 52 56 57 55 57 58 58 59 61 62 64 66 65 66 68 69 69 70 72 71 71
65 62 64 65 65 65 67 69 66 66 67 66 66 68 70 74 77 78 78 79 80 82
80 76 79 83 85 86 86 85 85 85 86 83 79 80 84 86 86 86 85 87 89 90
94 91 89 90 89 88 87 88 89 88 89 89 88 88 89 89 90 89 90 90 90 89
98 95 96 92 92 91 88 88 87 87 86 86 87 86 88 90 90 89 88 85 85 88
98 95 91 90 88 86 85 82 81 80 78 77 75 76 73 76 78 78 82 83 79 75
86 84 81 80 79 74 71 65 62 59 56 52 52 51 51 52 52 51 50 50 50 48

GFSNIL_prec_cthk_087.txt.gz
RH
41 28 32 43 44 50 54 59 69 74 83 95 99 99 98 99 98 98 98 90 77 82
39 29 34 44 46 50 48 51 66 75 81 90 98 98 99 99 99 96 97 85 83 87
39 31 36 40 47 51 49 49 52 59 75 86 91 98 98 98 98 96 90 84 91 93
43 34 37 40 45 47 48 50 53 57 65 75 91 95 93 95 95 95 94 93 92 90
53 40 40 44 45 48 48 50 52 54 61 67 74 86 94 95 95 94 94 94 92 90
59 48 45 48 47 50 50 51 54 55 57 60 63 71 77 81 80 88 91 89 90 89
66 61 54 50 54 53 55 55 55 57 58 59 60 60 62 69 77 83 83 79 79 76
71 68 62 55 58 58 55 56 57 57 60 60 60 63 65 66 66 67 67 68 69 71
75 70 67 59 58 61 60 60 62 62 61 60 62 65 68 72 76 75 76 76 78 78
80 77 74 70 64 65 67 71 72 73 73 71 72 74 75 76 78 81 83 83 84 85
85 84 83 77 74 80 86 90 92 92 90 90 91 92 92 92 91 90 91 92 94 95
94 95 94 91 90 90 93 95 94 98 98 96 93 93 94 95 95 95 95 95 94 94
97 97 97 97 99 98 97 97 97 99 98 96 94 91 89 87 85 85 86 85 83 83
98 97 97 96 98 98 97 94 92 90 84 81 78 75 71 68 65 64 64 61 57 54

GFSNIL_prec_cthk_090.txt.gz
RH
58 64 46 32 31 38 44 48 53 61 69 75 87 96 99 98 99 98 98 96 95 92
65 63 43 32 34 40 47 48 50 57 69 74 86 97 98 98 98 99 98 98 97 93
71 56 43 32 37 42 49 49 48 52 61 73 83 95 98 98 98 99 97 98 98 96
70 59 45 37 40 46 48 47 49 51 56 65 85 90 97 97 98 99 99 99 98 97
75 65 54 45 43 46 47 47 49 50 55 63 73 91 94 96 97 98 99 96 96 93
77 73 64 54 51 51 49 49 48 52 54 57 66 74 85 94 96 95 96 96 96 96
82 75 71 62 61 55 52 49 51 51 55 58 60 64 73 80 86 86 93 98 98 94
81 78 74 71 70 62 56 54 54 53 54 56 60 63 64 66 71 80 87 86 85 84
82 80 77 77 72 70 62 59 58 56 57 58 60 64 67 68 69 69 69 68 68 69
86 82 80 81 78 75 70 63 62 64 63 65 66 67 69 70 70 74 77 77 77 78
90 85 83 82 81 81 81 76 69 70 76 76 76 77 77 78 80 83 83 84 86 89
95 92 89 87 85 84 82 83 80 84 87 90 92 93 92 93 95 94 94 95 96 95
98 94 93 91 91 90 92 92 91 95 96 96 96 98 99 99 99 98 98 98 98 97
98 96 97 96 96 97 99 96 98 98 98 99 98 98 98 97 95 91 88 86 83 80

GFSNIL_prec_cthk_096.txt.gz
RH
54 49 49 46 43 51 53 55 34 35 46 49 53 60 68 75 81 93 92 84 93 89
66 56 52 48 49 55 57 51 32 39 48 52 53 56 66 78 81 89 92 96 90 86
65 61 54 53 56 58 62 46 36 43 49 51 55 56 61 68 87 96 96 99 94 96
80 65 57 58 62 67 61 44 37 46 52 55 57 57 65 84 94 98 98 99 94 93
88 73 64 62 70 73 59 49 43 49 53 55 55 59 69 83 95 97 98 98 99 99
90 77 70 71 75 72 63 53 49 51 53 54 57 61 65 73 88 97 98 99 99 99
85 75 71 74 79 76 71 62 58 57 54 58 59 63 67 73 76 91 96 98 98 99
88 79 79 79 81 81 80 72 68 63 62 63 62 62 65 68 73 74 80 93 98 98
86 75 78 80 84 82 86 79 71 72 69 68 65 64 66 66 70 73 77 77 91 98
83 87 87 85 86 86 88 93 84 74 76 76 71 68 68 68 68 73 73 78 81 87
95 93 92 91 94 97 95 90 97 86 78 81 78 76 72 72 72 72 72 72 76 82
98 97 95 96 98 98 98 96 92 88 94 86 85 84 83 81 80 79 83 82 76 74
98 97 98 98 99 99 97 95 96 94 91 89 91 91 92 91 90 91 91 93 93 90
97 99 97 94 98 98 97 99 98 98 97 96 94 94 94 93 94 95 97 97 96 97

GFSNIL_prec_cthk_099.txt.gz
RH
44 48 54 65 55 55 57 54 54 56 58 39 37 46 44 46 57 70 78 84 93 89
52 62 63 65 56 60 61 56 55 58 53 38 41 47 47 48 58 70 79 83 91 98
67 77 78 68 64 62 61 57 59 60 52 41 45 50 51 51 55 64 70 81 87 90
84 90 84 82 74 66 63 65 63 61 50 44 46 49 49 49 56 73 84 90 99 97
92 94 93 88 77 72 75 68 67 62 49 46 48 50 49 50 60 79 96 99 96 96
81 86 96 87 78 77 74 77 69 63 50 47 49 48 48 54 64 73 89 98 97 98
85 95 98 91 81 78 75 77 74 61 52 49 51 48 51 58 71 70 78 93 98 99
89 91 95 93 81 80 78 82 73 66 57 53 56 54 56 59 66 70 75 78 93 98
88 95 94 84 82 83 82 87 79 75 64 58 57 60 60 61 64 64 71 77 82 94
79 90 96 89 80 83 82 83 81 84 81 67 63 66 68 66 66 67 66 78 82 81
92 92 93 84 83 82 83 85 87 86 89 83 72 68 71 73 71 70 71 76 73 77
98 98 93 93 89 88 87 89 92 92 94 96 88 80 82 78 76 78 79 77 77 75
92 95 98 99 96 97 98 98 96 98 96 99 97 94 93 88 84 83 83 83 84 87
94 94 97 98 98 99 98 98 97 98 99 98 96 98 98 94 92 91 93 92 91 92

GFSNIL_prec_cthk_102.txt.gz
RH
45 43 46 40 43 58 69 69 63 56 58 54 58 60 57 42 49 51 54 59 63 70
54 53 53 47 56 69 80 72 64 63 57 58 59 61 49 48 52 52 55 58 63 70
56 65 63 56 58 65 73 77 67 67 59 56 59 60 50 49 52 53 56 56 57 62
69 67 63 64 67 72 78 80 76 72 63 59 57 58 50 50 53 55 58 58 59 71
80 72 76 80 72 81 80 83 82 75 66 62 63 57 51 51 53 54 58 60 70 89
86 84 84 91 88 88 91 90 87 81 75 71 64 55 50 51 53 57 62 63 76 91
86 87 93 94 88 98 96 92 89 83 76 74 67 56 50 51 51 60 61 63 71 86
89 85 86 97 98 98 98 93 88 82 79 76 67 58 53 54 55 61 60 63 65 77
84 83 90 99 98 98 97 91 86 87 84 78 72 62 57 58 59 58 57 61 62 73
79 81 89 93 91 98 94 92 89 86 81 84 80 69 64 61 62 61 66 59 62 72
84 93 95 91 94 98 92 91 95 90 86 88 86 81 78 69 67 68 68 69 68 73
97 94 85 90 98 97 89 91 94 92 91 90 90 87 90 86 77 72 75 74 75 78
98 98 98 98 98 98 96 87 89 91 90 92 93 95 93 93 93 81 82 86 83 82
93 98 97 98 98 98 98 94 93 95 97 98 98 99 98 96 98 99 95 90 90 88